Location: Bright Sky Observatory
(40.7821°N, 74.2425°W)
Time: 18:02:26
(UTC-05:00)

Amateur Radio Satellites - All Passes

Search period start: 27 November 2014 17:32
Search period end: 28 November 2014 17:32
Location: Bright Sky Observatory, 40.7821°N, 74.2425°W

Satellite Date Start Highest point End Downlink Frequencies (MHz)
Time Altitude Azimuth
CUBESAT XI-V 27 Nov 17:36:23 17:38:45 14° 90° (E) 17:41:05 437.345
Cubesat XI-IV 27 Nov 17:50:26 17:55:42 56° 259° (W) 18:00:59 437.490
RS-15 27 Nov 17:53:21 18:03:12 37° 322° (NW) 18:13:11 29.354- 29.394
PRISM 27 Nov 17:59:54 18:04:07 63° 101° (ESE) 18:08:17 437.425
GONETS M04 27 Nov 18:12:21 18:20:31 40° 72° (ENE) 18:28:34
PCSat 27 Nov 18:22:17 18:27:04 33° 110° (ESE) 18:31:52 145.827
PHONESAT 2.4 27 Nov 18:27:42 18:31:13 41° 201° (SSW) 18:34:44 2401.200-2431.200
VERMONT LUNAR 27 Nov 18:31:47 18:34:59 29° 205° (SSW) 18:38:10 437.305
CUTE-I 27 Nov 18:32:36 18:36:53 24° 266° (W) 18:41:11 437.470
BEESAT 3 27 Nov 18:39:16 18:42:22 21° 112° (ESE) 18:45:30 437.485
HO-68 27 Nov 18:39:31 18:45:12 26° 59° (ENE) 18:50:53 435.675
STRAND 1 27 Nov 18:47:13 18:52:19 68° 102° (ESE) 18:57:22 437.568
BEESAT 2 27 Nov 18:55:42 18:59:14 28° 114° (ESE) 19:02:50 435.950
GOMX 1 27 Nov 19:01:02 19:02:53 12° 64° (ENE) 19:04:43 467.674
AAUSAT CUBESAT 2 27 Nov 19:04:01 19:04:42 10° 62° (ENE) 19:05:23 437.432
AIST 1 27 Nov 19:09:12 19:13:33 65° 95° (E) 19:17:57
CUBESAT XI-V 27 Nov 19:11:58 19:16:34 58° 286° (WNW) 19:21:05 437.345
COMPASS 1 27 Nov 19:18:19 19:21:05 17° 66° (ENE) 19:23:51 437.405
CANX-2 27 Nov 19:18:23 19:21:52 26° 69° (ENE) 19:25:22 2200.000
DX 1 27 Nov 19:30:23 19:31:28 11° 61° (ENE) 19:32:33 434.975-435.025
BRITE-PL 27 Nov 19:35:56 19:40:32 40° 72° (ENE) 19:44:48 437.365/2234.400
PRISM 27 Nov 19:37:28 19:39:08 12° 298° (WNW) 19:40:47 437.425
AIST 2 27 Nov 19:37:52 19:41:48 40° 116° (ESE) 19:45:48 435.215
DOVE 4 27 Nov 19:46:13 19:49:58 26° 69° (ENE) 19:53:35 437.250
CUTE 1.7 + AOD 2 27 Nov 19:52:02 19:56:09 56° 74° (ENE) 20:00:18 437.475
PCSat 27 Nov 20:05:26 20:10:24 36° 307° (NW) 20:15:24 145.827
CINEMA 3 27 Nov 20:08:27 20:12:05 27° 69° (ENE) 20:15:37 145.822/145.860
PHONESAT 2.4 27 Nov 20:08:30 20:09:24 11° 216° (SW) 20:10:18 2401.200-2431.200
GONETS M04 27 Nov 20:09:09 20:17:23 46° 272° (W) 20:25:32
RS-15 27 Nov 20:12:40 20:20:06 20° 356° (N) 20:27:40 29.354- 29.394
BEESAT 3 27 Nov 20:16:33 20:20:21 36° 309° (NW) 20:24:14 437.485
SEEDS 27 Nov 20:22:37 20:26:47 75° 258° (WSW) 20:31:01 437.485
HO-68 27 Nov 20:25:15 20:32:21 64° 257° (WSW) 20:39:31 435.675
UKube-1 27 Nov 20:25:32 20:29:36 40° 71° (ENE) 20:33:41 .
STRAND 1 27 Nov 20:28:01 20:30:55 15° 299° (WNW) 20:33:48 437.568
DELFI C3 27 Nov 20:31:36 20:35:26 41° 72° (ENE) 20:39:17 145.870
FUNcube-1 27 Nov 20:32:35 20:35:48 22° 68° (ENE) 20:39:01 145.935
AISAT 27 Nov 20:33:49 20:36:42 17° 64° (ENE) 20:39:35 437.250
BEESAT 2 27 Nov 20:33:52 20:37:28 28° 311° (NW) 20:41:07 435.950
Oscar 11 27 Nov 20:35:14 20:39:26 56° 74° (ENE) 20:43:40 145.826/435.025
AAUSAT CUBESAT 2 27 Nov 20:35:38 20:39:46 71° 259° (WSW) 20:43:58 437.432
GOMX 1 27 Nov 20:35:49 20:40:34 68° 258° (WSW) 20:45:00 467.674
50 SAT 27 Nov 20:40:25 20:42:19 13° 64° (ENE) 20:44:14 437.505
AIST 1 27 Nov 20:50:21 20:51:42 11° 292° (WNW) 20:53:03
COMPASS 1 27 Nov 20:52:36 20:56:30 39° 262° (W) 21:00:27 437.405
CANX-2 27 Nov 20:54:12 20:57:44 26° 265° (W) 21:01:18 2200.000
UWE-3 27 Nov 21:02:30 21:06:38 56° 74° (ENE) 21:10:44 435.000/436.395/437.385
HUMSAT D 27 Nov 21:02:39 21:06:11 28° 70° (ENE) 21:09:44 437.325/437.525
DX 1 27 Nov 21:02:41 21:07:04 77° 257° (WSW) 21:11:28 434.975-435.025
CUBEBUG 2 27 Nov 21:06:13 21:10:27 73° 76° (ENE) 21:14:37 437.445
BRITE-PL 27 Nov 21:15:25 21:19:07 21° 265° (W) 21:22:39 437.365/2234.400
AIST 2 27 Nov 21:17:10 21:20:34 23° 314° (NW) 21:24:01 435.215
DOVE 4 27 Nov 21:23:45 21:27:41 28° 264° (W) 21:31:26 437.250
CUTE 1.7 + AOD 2 27 Nov 21:30:50 21:32:26 12° 270° (W) 21:34:03 437.475
ANTELSAT 27 Nov 21:32:56 21:35:27 15° 92° (E) 21:37:59 437.575/2403.000
ZACube-1 27 Nov 21:33:11 21:37:23 75° 258° (WSW) 21:41:33 437.345
VELOX 1 27 Nov 21:40:54 21:45:23 84° 76° (ENE) 21:49:53 145.980
CINEMA 3 27 Nov 21:45:37 21:49:15 25° 264° (W) 21:52:48 145.822/145.860
ESTCUBE 1 27 Nov 21:46:49 21:50:58 36° 70° (ENE) 21:55:09 437.505/2401.250
ISS 27 Nov 21:53:40 21:56:30 27° 135° (SE) 21:59:21 145.825
NANOSAT C BR1 27 Nov 21:54:26 21:56:59 16° 92° (E) 21:59:31 145.865
UKube-1 27 Nov 22:02:58 22:05:56 18° 267° (W) 22:08:54 .
QB50P1 27 Nov 22:04:07 22:07:16 20° 94° (E) 22:10:24 145.935-145.965
BUGSAT 1 27 Nov 22:04:59 22:07:31 16° 93° (E) 22:10:01 437.445
FUNcube-1 27 Nov 22:08:20 22:12:01 30° 263° (W) 22:15:42 145.935
DELFI C3 27 Nov 22:08:34 22:10:56 15° 268° (W) 22:13:19 145.870
AISAT 27 Nov 22:08:38 22:12:58 47° 260° (W) 22:17:17 437.250
50 SAT 27 Nov 22:13:18 22:17:12 50° 260° (W) 22:21:08 437.505
CUBEBUG 1 27 Nov 22:13:58 22:18:23 68° 75° (ENE) 22:22:48 437.445
Oscar 11 27 Nov 22:14:10 22:15:57 12° 270° (W) 22:17:45 145.826/435.025
TIGRISAT 27 Nov 22:24:20 22:28:40 51° 100° (E) 22:33:06 435.000
CUSAT 1 27 Nov 22:25:23 22:29:24 24° 76° (ENE) 22:34:22 437.405
RS-15 27 Nov 22:28:05 22:37:35 31° 32° (NNE) 22:47:20 29.354- 29.394
POPSAT HIP 1 27 Nov 22:28:35 22:32:32 37° 98° (E) 22:36:27 437.405
HUMSAT D 27 Nov 22:38:45 22:42:00 22° 265° (W) 22:45:15 437.325/437.525
UNISAT 6 27 Nov 22:39:02 22:43:31 76° 102° (ESE) 22:48:05 437.425
UWE-3 27 Nov 22:42:07 22:43:32 11° 269° (W) 22:44:56 435.000/436.395/437.385
DANDE 27 Nov 22:59:32 23:03:59 40° 79° (ENE) 23:09:52 436.750
POLYITAN 1 27 Nov 23:03:12 23:07:26 84° 285° (WNW) 23:11:40 437.675
AUBIESAT-1 27 Nov 23:03:42 23:06:24 17° 57° (ENE) 23:09:13 437.475
QB50P2 27 Nov 23:04:24 23:08:39 81° 284° (WNW) 23:12:52 145.880/145.840
ANTELSAT 27 Nov 23:08:10 23:12:31 52° 287° (WNW) 23:16:57 437.575/2403.000
DUCHIFAT 1 27 Nov 23:09:08 23:13:21 73° 285° (WNW) 23:17:32 145.980
M-CUBED/EXP-1 PRIME 27 Nov 23:09:50 23:12:58 21° 59° (ENE) 23:16:18 437.505
TISAT 1 27 Nov 23:13:51 23:18:07 79° 76° (ENE) 23:22:23 437.305
MaSat-1 27 Nov 23:14:47 23:16:12 14° 58° (ENE) 23:17:38 437.345
ITUPSAT 1 27 Nov 23:21:40 23:24:33 16° 62° (ENE) 23:27:26 437.325
ESTCUBE 1 27 Nov 23:24:29 23:27:56 21° 266° (W) 23:31:25 437.505/2401.250
NANOSAT C BR1 27 Nov 23:29:05 23:33:05 42° 288° (WNW) 23:37:03 145.865
SPROUT 27 Nov 23:29:58 23:34:17 79° 258° (WSW) 23:38:37 437.525
ISS 27 Nov 23:30:00 23:33:04 35° 332° (NNW) 23:36:08 145.825
SWISSCUBE 27 Nov 23:30:57 23:34:33 21° 65° (ENE) 23:38:09 437.505
BUGSAT 1 27 Nov 23:39:24 23:43:12 38° 289° (WNW) 23:46:56 437.445
QB50P1 27 Nov 23:39:27 23:43:14 33° 290° (WNW) 23:47:00 145.935-145.965
CUBEBUG 1 27 Nov 23:54:09 23:55:12 11° 270° (W) 23:56:15 437.445
BEESAT 28 Nov 00:00:35 00:05:00 38° 70° (ENE) 00:09:25 436.000
TIGRISAT 28 Nov 00:02:21 00:05:02 16° 295° (WNW) 00:07:45 435.000
POPSAT HIP 1 28 Nov 00:05:15 00:08:10 19° 294° (WNW) 00:11:05 437.405
CUSAT 1 28 Nov 00:07:46 00:12:29 43° 264° (W) 00:18:39 437.405
UNISAT 6 28 Nov 00:18:23 00:19:43 11° 298° (WNW) 00:21:04 437.425
Oscar 19 28 Nov 00:34:58 00:38:55 22° 94° (E) 00:42:52 437.125/150
AUBIESAT-1 28 Nov 00:36:54 00:40:54 51° 256° (WSW) 00:45:17 437.475
RS-15 28 Nov 00:40:27 00:51:45 85° 58° (ENE) 01:03:34 29.354- 29.394
DANDE 28 Nov 00:43:26 00:47:25 25° 266° (W) 00:52:21 436.750
M-CUBED/EXP-1 PRIME 28 Nov 00:43:52 00:47:42 39° 258° (WSW) 00:51:54 437.505
STARS 28 Nov 00:47:24 00:50:04 16° 64° (ENE) 00:52:43 437.465
MaSat-1 28 Nov 00:49:36 00:50:31 12° 252° (WSW) 00:51:27 437.345
ITUPSAT 1 28 Nov 00:57:12 01:01:56 59° 259° (W) 01:06:43 437.325
SWISSCUBE 28 Nov 01:07:34 01:12:07 42° 261° (W) 01:16:42 437.505
ISS 28 Nov 01:08:39 01:10:26 14° 351° (N) 01:12:14 145.825
YUBILEINY 28 Nov 01:22:38 01:30:37 41° 86° (E) 01:38:34 435.215
KKS-1 28 Nov 01:30:24 01:34:49 67° 74° (ENE) 01:39:14 437.445
ITAMSAT 1 28 Nov 01:32:21 01:36:49 29° 96° (E) 01:41:15 435.822/435.867
BEESAT 28 Nov 01:39:12 01:42:56 23° 266° (W) 01:46:42 436.000
SO-50 28 Nov 01:52:10 01:54:55 16° 109° (ESE) 01:57:43 436.795
Oscar 19 28 Nov 02:13:32 02:18:26 45° 290° (WNW) 02:23:20 437.125/150
Gurwin Techsat 1B 28 Nov 02:16:31 02:21:36 44° 99° (E) 02:26:38 435.225
STARS 28 Nov 02:21:53 02:26:09 49° 260° (W) 02:30:26 437.465
AO-7 28 Nov 02:25:00 02:27:27 11° 87° (E) 02:29:53 29.400- 29.500
HORYU 2 28 Nov 02:40:30 02:44:30 31° 97° (E) 02:48:30 437.375
ISS 28 Nov 02:46:10 02:48:08 15° 12° (NNE) 02:50:07 145.825
MOZHAYETS 4 28 Nov 02:52:32 02:54:59 14° 63° (ENE) 02:57:27
RS-15 28 Nov 02:54:23 03:02:50 25° 258° (WSW) 03:11:35 29.354- 29.394
BEESAT 3 28 Nov 02:59:16 03:01:57 16° 43° (NE) 03:04:36 437.485
PCSat 28 Nov 03:10:09 03:14:47 28° 49° (NE) 03:19:23 145.827
KKS-1 28 Nov 03:10:40 03:11:54 11° 270° (W) 03:13:08 437.445
ITAMSAT 1 28 Nov 03:11:40 03:16:18 34° 292° (WNW) 03:20:55 435.822/435.867
BEESAT 2 28 Nov 03:16:12 03:19:23 20° 45° (NE) 03:22:33 435.950
YUBILEINY 28 Nov 03:19:00 03:27:17 44° 286° (WNW) 03:35:35 435.215
SO-50 28 Nov 03:30:32 03:34:57 55° 306° (NW) 03:39:33 436.795
Gurwin Techsat 1B 28 Nov 03:57:06 04:01:16 24° 295° (WNW) 04:05:25 435.225
AIST 2 28 Nov 04:00:14 04:03:57 27° 48° (NE) 04:07:37 435.215
AO-7 28 Nov 04:13:17 04:21:39 69° 105° (ESE) 04:29:57 29.400- 29.500
HORYU 2 28 Nov 04:17:23 04:21:02 25° 293° (WNW) 04:24:41 437.375
ISS 28 Nov 04:22:14 04:25:25 45° 31° (NNE) 04:28:36 145.825
MOZHAYETS 4 28 Nov 04:27:09 04:31:41 60° 260° (W) 04:36:17
STRAND 1 28 Nov 04:27:25 04:29:30 13° 59° (ENE) 04:31:36 437.568
JAS-2 28 Nov 04:34:20 04:40:41 37° 94° (E) 04:46:19 435.910
O/OREOS (USA 219) 28 Nov 04:35:56 04:39:41 27° 103° (ESE) 04:43:25 437.305
BEESAT 3 28 Nov 04:36:26 04:40:35 62° 241° (WSW) 04:44:40 437.485
CUBESAT XI-V 28 Nov 04:40:08 04:42:43 15° 63° (ENE) 04:45:18 437.345
PRISM 28 Nov 04:50:32 04:54:33 45° 72° (ENE) 04:58:36 437.425
PCSat 28 Nov 04:53:13 04:58:22 45° 248° (WSW) 05:03:29 145.827
BEESAT 2 28 Nov 04:53:52 04:57:54 44° 243° (WSW) 05:01:51 435.950
CUTE-I 28 Nov 05:10:10 05:13:32 17° 92° (E) 05:16:54 437.470
SO-50 28 Nov 05:15:53 05:16:35 10° 327° (NNW) 05:17:18 436.795
AIST 1 28 Nov 05:18:05 05:20:50 16° 71° (ENE) 05:23:34
AIST 2 28 Nov 05:38:46 05:42:35 32° 246° (WSW) 05:46:21 435.215
ISS 28 Nov 05:59:20 06:01:51 20° 227° (SW) 06:04:23 145.825
STRAND 1 28 Nov 06:02:48 06:07:57 86° 256° (WSW) 06:13:07 437.568
AO-7 28 Nov 06:06:58 06:13:46 29° 304° (NW) 06:20:35 29.400- 29.500
Cubesat XI-IV 28 Nov 06:07:58 06:13:15 60° 101° (ESE) 06:18:28 437.490
CUBESAT XI-V 28 Nov 06:14:57 06:19:38 62° 259° (W) 06:24:20 437.345
O/OREOS (USA 219) 28 Nov 06:15:04 06:18:58 29° 300° (WNW) 06:22:53 437.305
JAS-2 28 Nov 06:19:21 06:25:41 38° 295° (WNW) 06:31:20 435.910
PRISM 28 Nov 06:27:55 06:30:20 15° 268° (W) 06:32:46 437.425
CUTE-I 28 Nov 06:48:46 06:54:00 59° 288° (WNW) 06:59:11 437.470
AIST 1 28 Nov 06:54:36 06:58:43 42° 268° (W) 07:02:47
GONETS M04 28 Nov 07:12:53 07:21:04 46° 88° (E) 07:29:18
Cubesat XI-IV 28 Nov 07:49:17 07:52:50 18° 298° (WNW) 07:56:21 437.490
HO-68 28 Nov 07:53:59 07:59:44 25° 94° (E) 08:05:26 435.675
SEEDS 28 Nov 08:08:37 08:11:40 19° 93° (E) 08:14:42 437.485
AAUSAT CUBESAT 2 28 Nov 08:20:31 08:23:32 19° 93° (E) 08:26:33 437.432
Oscar 11 28 Nov 08:25:54 08:26:39 10° 89° (E) 08:27:25 145.826/435.025
ANTELSAT 28 Nov 08:33:24 08:35:16 13° 63° (ENE) 08:37:09 437.575/2403.000
COMPASS 1 28 Nov 08:36:54 08:40:45 32° 97° (E) 08:44:34 437.405
GOMX 1 28 Nov 08:38:04 08:41:48 31° 97° (E) 08:45:38 467.674
CANX-2 28 Nov 08:39:15 08:43:28 52° 100° (E) 08:47:40 2200.000
NANOSAT C BR1 28 Nov 08:48:27 08:50:20 13° 63° (ENE) 08:52:13 145.865
DX 1 28 Nov 08:52:32 08:55:34 18° 94° (E) 08:58:35 434.975-435.025
UWE-3 28 Nov 08:54:57 08:56:22 11° 91° (E) 08:57:48 435.000/436.395/437.385
BUGSAT 1 28 Nov 08:56:17 08:58:12 13° 63° (ENE) 09:00:07 437.445
QB50P1 28 Nov 08:57:52 09:00:30 16° 65° (ENE) 09:03:08 145.935-145.965
CUBEBUG 2 28 Nov 08:58:54 09:01:26 15° 92° (E) 09:03:59 437.445
GONETS M04 28 Nov 09:09:50 09:17:56 40° 288° (WNW) 09:26:08
CUTE 1.7 + AOD 2 28 Nov 09:13:33 09:17:50 69° 285° (WNW) 09:22:06 437.475
BRITE-PL 28 Nov 09:19:01 09:23:07 62° 285° (WNW) 09:27:18 437.365/2234.400
POPSAT HIP 1 28 Nov 09:21:49 09:25:28 29° 69° (ENE) 09:29:08 437.405
DOVE 4 28 Nov 09:22:10 09:26:23 74° 102° (ESE) 09:30:44 437.250
ZACube-1 28 Nov 09:22:56 09:26:09 21° 94° (E) 09:29:24 437.345
TIGRISAT 28 Nov 09:23:25 09:27:26 42° 72° (ENE) 09:31:27 435.000
VELOX 1 28 Nov 09:33:29 09:36:16 16° 92° (E) 09:39:01 145.980
UNISAT 6 28 Nov 09:38:16 09:42:29 64° 75° (ENE) 09:46:43 437.425
CINEMA 3 28 Nov 09:39:41 09:43:56 70° 102° (ESE) 09:48:19 145.822/145.860
HO-68 28 Nov 09:40:48 09:47:50 60° 291° (WNW) 09:54:49 435.675
SEEDS 28 Nov 09:43:41 09:47:36 36° 289° (WNW) 09:51:32 437.485
DELFI C3 28 Nov 09:47:41 09:51:51 79° 102° (ESE) 09:55:59 145.870
UKube-1 28 Nov 09:49:30 09:53:52 78° 103° (ESE) 09:58:11 .
50 SAT 28 Nov 09:55:01 09:58:13 22° 95° (E) 10:01:25 437.505
AAUSAT CUBESAT 2 28 Nov 09:55:26 09:59:19 35° 289° (WNW) 10:03:11 437.432
POLYITAN 1 28 Nov 09:56:16 10:00:31 72° 75° (ENE) 10:04:45 437.675
FUNcube-1 28 Nov 09:56:33 10:00:41 48° 99° (E) 10:04:53 145.935
QB50P2 28 Nov 09:57:15 10:01:29 74° 75° (ENE) 10:05:44 145.880/145.840
Oscar 11 28 Nov 09:58:56 10:03:16 68° 285° (WNW) 10:07:35 145.826/435.025
AISAT 28 Nov 10:00:22 10:04:21 32° 97° (E) 10:08:18 437.250
DUCHIFAT 1 28 Nov 10:01:35 10:05:50 81° 76° (ENE) 10:10:06 145.980
CUBEBUG 1 28 Nov 10:05:29 10:07:25 13° 91° (E) 10:09:20 437.445
ANTELSAT 28 Nov 10:07:23 10:11:35 59° 259° (W) 10:15:49 437.575/2403.000
COMPASS 1 28 Nov 10:13:03 10:16:17 21° 293° (WNW) 10:19:31 437.405
GOMX 1 28 Nov 10:16:38 10:19:48 21° 292° (WNW) 10:23:00 467.674
CANX-2 28 Nov 10:16:39 10:18:58 14° 296° (WNW) 10:21:17 2200.000
NANOSAT C BR1 28 Nov 10:21:32 10:25:44 59° 259° (W) 10:29:56 145.865
SO-50 28 Nov 10:22:29 10:25:59 19° 42° (NE) 10:29:29 436.795
HUMSAT D 28 Nov 10:22:36 10:26:44 57° 100° (E) 10:30:53 437.325/437.525
DX 1 28 Nov 10:27:55 10:31:57 38° 290° (WNW) 10:35:58 434.975-435.025
BUGSAT 1 28 Nov 10:29:01 10:33:13 58° 259° (W) 10:37:24 437.445
UWE-3 28 Nov 10:29:04 10:33:16 60° 285° (WNW) 10:37:34 435.000/436.395/437.385
QB50P1 28 Nov 10:31:58 10:36:02 44° 261° (W) 10:40:07 145.935-145.965
CUBEBUG 2 28 Nov 10:34:16 10:38:21 45° 287° (WNW) 10:42:31 437.445
POPSAT HIP 1 28 Nov 10:57:56 11:01:22 24° 265° (W) 11:04:48 437.405
ZACube-1 28 Nov 10:58:45 11:02:35 33° 289° (WNW) 11:06:28 437.345
TISAT 1 28 Nov 11:01:17 11:03:09 13° 91° (E) 11:05:01 437.305
TIGRISAT 28 Nov 11:01:49 11:04:24 16° 268° (W) 11:06:59 435.000
VELOX 1 28 Nov 11:08:52 11:13:05 45° 288° (WNW) 11:17:15 145.980
ESTCUBE 1 28 Nov 11:16:23 11:20:57 83° 103° (ESE) 11:25:28 437.505/2401.250
SPROUT 28 Nov 11:18:13 11:21:12 18° 93° (E) 11:24:09 437.525
UNISAT 6 28 Nov 11:19:06 11:19:43 10° 270° (W) 11:20:19 437.425
CINEMA 3 28 Nov 11:19:32 11:20:37 11° 297° (WNW) 11:21:43 145.822/145.860
UKube-1 28 Nov 11:28:40 11:29:23 10° 299° (WNW) 11:30:05 .
50 SAT 28 Nov 11:30:01 11:33:31 28° 290° (WNW) 11:37:01 437.505
HO-68 28 Nov 11:31:47 11:34:05 12° 311° (NW) 11:36:23 435.675
YUBILEINY 28 Nov 11:33:39 11:39:30 19° 62° (ENE) 11:45:18 435.215
FUNcube-1 28 Nov 11:34:12 11:36:41 15° 295° (WNW) 11:39:11 145.935
AISAT 28 Nov 11:37:20 11:40:49 23° 293° (WNW) 11:44:16 437.250
CUBEBUG 1 28 Nov 11:39:52 11:44:09 55° 287° (WNW) 11:48:22 437.445
CUSAT 1 28 Nov 11:41:15 11:42:12 11° 91° (E) 11:43:09 437.405
Oscar 19 28 Nov 11:51:34 11:56:00 31° 67° (ENE) 12:00:28 437.125/150
HUMSAT D 28 Nov 12:00:13 12:02:04 13° 296° (WNW) 12:03:56 437.325/437.525
SO-50 28 Nov 12:02:09 12:07:00 69° 240° (WSW) 12:11:52 436.795
DANDE 28 Nov 12:17:09 12:19:38 33° 96° (E) 12:22:02 436.750
AUBIESAT-1 28 Nov 12:21:08 12:24:00 15° 95° (E) 12:26:47 437.475
M-CUBED/EXP-1 PRIME 28 Nov 12:27:41 12:31:16 20° 97° (E) 12:34:45 437.505
TISAT 1 28 Nov 12:35:12 12:39:18 52° 287° (WNW) 12:43:22 437.305
ITAMSAT 1 28 Nov 12:49:58 12:54:52 43° 70° (ENE) 12:59:47 435.822/435.867
SPROUT 28 Nov 12:53:28 12:57:25 37° 289° (WNW) 13:01:21 437.525
ESTCUBE 1 28 Nov 12:56:19 12:57:07 10° 300° (WNW) 12:57:55 437.505/2401.250
ITUPSAT 1 28 Nov 12:58:27 13:02:53 36° 98° (E) 13:07:16 437.325
VERMONT LUNAR 28 Nov 12:59:31 13:02:39 28° 154° (SSE) 13:05:48 437.305
PHONESAT 2.4 28 Nov 12:59:36 13:02:30 22° 151° (SSE) 13:05:25 2401.200-2431.200
SWISSCUBE 28 Nov 13:08:10 13:12:51 50° 100° (E) 13:17:28 437.505
AO-7 28 Nov 13:22:43 13:28:21 21° 51° (NE) 13:33:59 29.400- 29.500
KKS-1 28 Nov 13:23:51 13:25:57 13° 91° (E) 13:28:03 437.445
CUSAT 1 28 Nov 13:23:58 13:25:11 12° 288° (WNW) 13:26:24 437.405
YUBILEINY 28 Nov 13:28:47 13:37:33 89° 264° (W) 13:46:14 435.215
Oscar 19 28 Nov 13:30:47 13:35:17 31° 264° (W) 13:39:49 437.125/150
Gurwin Techsat 1B 28 Nov 13:37:17 13:42:33 68° 74° (ENE) 13:47:50 435.225
BEESAT 28 Nov 13:38:34 13:43:24 86° 284° (WNW) 13:48:10 436.000
HORYU 2 28 Nov 13:39:11 13:42:58 28° 68° (ENE) 13:46:46 437.375
AUBIESAT-1 28 Nov 13:54:29 13:59:21 62° 291° (WNW) 14:04:02 437.475
M-CUBED/EXP-1 PRIME 28 Nov 14:01:45 14:06:30 48° 293° (WNW) 14:11:06 437.505
STARS 28 Nov 14:12:29 14:16:22 30° 97° (E) 14:20:14 437.465
MaSat-1 28 Nov 14:15:21 14:18:17 77° 115° (ESE) 14:20:58 437.345
ITAMSAT 1 28 Nov 14:30:27 14:34:31 23° 266° (W) 14:38:36 435.822/435.867
ITUPSAT 1 28 Nov 14:36:44 14:40:35 24° 294° (WNW) 14:44:24 437.325
PHONESAT 2.4 28 Nov 14:37:15 14:40:56 66° 166° (SSE) 14:44:38 2401.200-2431.200
VERMONT LUNAR 28 Nov 14:37:15 14:40:52 76° 170° (S) 14:44:30 437.305
O/OREOS (USA 219) 28 Nov 14:45:19 14:49:41 49° 64° (ENE) 14:54:02 437.305
JAS-2 28 Nov 14:45:53 14:51:23 22° 58° (ENE) 14:56:54 435.910
SWISSCUBE 28 Nov 14:47:05 14:50:18 18° 296° (WNW) 14:53:31 437.505
KKS-1 28 Nov 14:58:35 15:02:56 56° 287° (WNW) 15:07:16 437.445
RS-15 28 Nov 15:03:28 15:14:03 57° 113° (ESE) 15:24:36 29.354- 29.394
AO-7 28 Nov 15:11:41 15:19:59 86° 71° (ENE) 15:28:21 29.400- 29.500
HORYU 2 28 Nov 15:15:54 15:19:36 26° 264° (W) 15:23:20 437.375
Gurwin Techsat 1B 28 Nov 15:20:07 15:22:59 15° 270° (W) 15:25:52 435.225
YUBILEINY 28 Nov 15:28:01 15:33:00 17° 283° (WNW) 15:37:59 435.215
STARS 28 Nov 15:49:10 15:52:43 25° 293° (WNW) 15:56:16 437.465
Cubesat XI-IV 28 Nov 15:53:20 15:55:49 13° 59° (ENE) 15:58:18 437.490
VERMONT LUNAR 28 Nov 16:15:42 16:19:20 81° 188° (S) 16:22:58 437.305
PHONESAT 2.4 28 Nov 16:15:58 16:19:42 86° 185° (S) 16:23:26 2401.200-2431.200
MOZHAYETS 4 28 Nov 16:22:58 16:27:10 33° 96° (E) 16:31:20
O/OREOS (USA 219) 28 Nov 16:26:05 16:28:38 15° 261° (W) 16:31:10 437.305
JAS-2 28 Nov 16:27:42 16:35:24 87° 256° (WSW) 16:43:19 435.910
CUTE-I 28 Nov 16:31:28 16:35:59 29° 66° (ENE) 16:40:30 437.470
AO-7 28 Nov 17:08:15 17:13:42 19° 269° (W) 17:19:11 29.400- 29.500
